Flag for Germany Weather past 2 weeks in Stendal, Saxony-Anhalt, Germany

Now
42 °F

Drizzle. Overcast.


Feels Like: 42 °F
Forecast: 39 / 50 °F
Wind: 2 mph from Southwest

Location: Magdeburg

Current Time: Mar 27, 2015 at 1:02:26 AM

Latest Report: Mar 27, 2015 at 12:00 AM


Visibility: 4 mi

Pressure: 29.78 "Hg

Humidity: 82%

Dew point: 37 °F

Location of StendalLocation

Historic Weather in Stendal — Graph

°F

Stendal temperature yesterday

Maximum temperature yesterday: 46 °F (at 3:00 PM)
Minimum temperature yesterday: 41 °F (at 11:00 PM)
Average temperature yesterday: 44 °F

Past Weeks' High & Low Weather Summary

 TemperatureHumidityPressure
High61 °F (Mar 25, 5:00 PM)96% (Mar 21, 3:00 AM)30.54 "Hg (Mar 21, 3:00 AM)
Low27 °F (Mar 23, 5:00 AM)29% (Mar 19, 5:00 PM)29.64 "Hg (Mar 26, 12:00 AM)
Average43 °F72%30.20 "Hg
* Reported Midnight between Mar 11 and Mar 12 — Midnight between Mar 26 and Mar 27, Stendal, Weather by CustomWeather, © 2015

Note: Actual official high and low records may vary slightly from our data, if they occured in-between our weather recording intervals... More about our weather records

Advertising

Stendal weather history for previous 24 hours

 ConditionsComfort  
Time TempWeatherWind HumidityBarometerVisibility
12:00 AM
Fri, Mar 27
42 °FDrizzle. Overcast.2 mph82%29.78 "Hg4 mi
11:00 PM
Thu, Mar 26
41 °FFog.2 mph83%29.78 "Hg4 mi
10:00 PM42 °FFog.2 mph81%29.78 "Hg4 mi
9:00 PM42 °FOvercast.1 mph78%29.78 "Hg5 mi
8:00 PM44 °FOvercast.1 mph75%29.77 "Hg5 mi
7:00 PM45 °FOvercast.1 mph72%29.77 "Hg6 mi
6:00 PM45 °FOvercast.1 mph70%29.77 "Hg7 mi
5:00 PM45 °FOvercast.1 mph69%29.77 "Hg9 mi
3:00 PM46 °FOvercast.2 mph69%29.76 "Hg6 mi
2:00 PM45 °FOvercast.2 mph74%29.76 "Hg5 mi
1:00 PM44 °FOvercast.3 mph79%29.77 "Hg5 mi
12:00 PM44 °FOvercast.2 mph78%29.77 "Hg5 mi
11:00 AM43 °FFog.5 mph85%29.76 "Hg3 mi
9:00 AM44 °FFog.3 mph80%29.74 "Hg4 mi
8:00 AM44 °FFog.3 mph81%29.72 "Hg4 mi
7:00 AM44 °FFog.2 mph84%29.71 "Hg4 mi
6:00 AM44 °FFog.3 mph84%29.70 "Hg4 mi
5:00 AM45 °FFog.2 mph84%29.69 "Hg3 mi
3:00 AM46 °FFog.3 mph87%29.67 "Hg2 mi
2:00 AM45 °FFog.2 mph90%29.65 "Hg1 mi
1:00 AM46 °FPassing clouds.1 mph78%29.64 "Hg3 mi
Weather by CustomWeather, © 2015

See weather overviewHow to use our weather pages